User: anonymous   Login
Location: Unspecified
(0.0000°N, 0.0000°E)
Time: 20:32:11
(UTC+00:00)
Language:

USA 271 - Orbit

View from above orbital plane
View from above orbital plane
View from above satellite
View from above satellite

Ground track
Ground track

The orbit data is extracted from the following two-line orbital elements,

1 41745U 16052B   21126.58679027 -.00000212  00000-0  00000+0 0  9996
2 41745   0.8694  96.9419 0010633 275.4311 150.4919  1.00272626    10
Epoch (UTC): 06 May 2021 14:04:58
Eccentricity: 0.0010633
inclination: 0.8694°
perigee height: 35741 km
apogee height: 35831 km
right ascension of ascending node: 96.9419°
argument of perigee: 275.4311°
revolutions per day: 1.00272626
mean anomaly at epoch: 150.4919°
orbit number at epoch: 1

The dashed part of the orbit path shows where the satellite is in the earth's shadow,  

DLR